Flag for Japan Weather past 2 weeks in Sapporo, Japan

Now
83 °F

Warm.


Feels Like: 84 °F
Forecast: 69 / 78 °F
Wind: 9 mph from Southwest

Location: Sapporo

Current Time: Aug 23, 2014 at 1:45:17 PM

Latest Report: Aug 23, 2014 at 1:00 PM


Visibility: N/A

Pressure: 29.72 "Hg

Humidity: 49%

Dew point: 62 °F

Location of SapporoLocation

Historic Weather in Sapporo — Graph

°F

Sapporo temperature yesterday

Maximum temperature yesterday: 73 °F (at 2:00 PM)
Minimum temperature yesterday: 68 °F (at 10:00 PM)
Average temperature yesterday: 70 °F

Past Weeks' High & Low Weather Summary

 TemperatureHumidityPressure
High82 °F (Aug 11, 3:00 PM)96% (Aug 11, 5:00 AM)30.03 "Hg (Aug 11, 5:00 AM)
Low65 °F (Aug 11, 2:00 AM)39% (Aug 13, 1:00 PM)29.18 "Hg (Aug 11, 7:00 AM)
Average72 °F74%29.81 "Hg
* Reported Aug 8 12:00 Noon — Aug 23 12:00 Noon, Sapporo, Weather by CustomWeather, © 2014

Note: Actual official high and low records may vary slightly from our data, if they occured in-between our weather recording intervals... More about our weather records

Advertising

Sapporo weather history for previous 24 hours

 ConditionsComfort  
Time TempWeatherWind HumidityBarometerVisibility
12:00 PM
Aug 23
82 °FOvercast.16 mph50%29.71 "Hg12 mi
11:00 AM78 °FWarm.13 mph73%29.72 "HgN/A
10:00 AM79 °FWarm.12 mph64%29.74 "HgN/A
9:00 AM77 °FOvercast.8 mph77%29.75 "Hg16 mi
8:00 AM71 °FMild.10 mph91%29.77 "HgN/A
7:00 AM72 °FMild.9 mph87%29.76 "HgN/A
6:00 AM71 °FSprinkles. Overcast.9 mph89%29.77 "Hg9 mi
5:00 AM70 °FMild.12 mph93%29.77 "HgN/A
4:00 AM71 °FMild.15 mph87%29.77 "HgN/A
3:00 AM70 °FOvercast.17 mph88%29.78 "Hg9 mi
2:00 AM70 °FMild.15 mph88%29.78 "HgN/A
1:00 AM69 °FMild.10 mph88%29.80 "HgN/A
12:00 AM69 °FMild.15 mph90%29.82 "HgN/A
11:00 PM
Aug 22
69 °FMild.13 mph90%29.83 "HgN/A
10:00 PM68 °FMild.9 mph93%29.85 "HgN/A
9:00 PM69 °FRain. Overcast.12 mph92%29.88 "Hg6 mi
8:00 PM69 °FMild.9 mph91%29.87 "HgN/A
7:00 PM69 °FMild.8 mph90%29.85 "HgN/A
6:00 PM69 °FSprinkles. Overcast.15 mph88%29.85 "Hg12 mi
5:00 PM69 °FMild.14 mph87%29.87 "HgN/A
4:00 PM69 °FMild.12 mph86%29.87 "HgN/A
3:00 PM71 °FSprinkles. Overcast.13 mph79%29.85 "Hg12 mi
2:00 PM73 °FMild.10 mph74%29.85 "HgN/A
1:00 PM71 °FMild.12 mph79%29.88 "HgN/A
Weather by CustomWeather, © 2014

See weather overviewHow to use our weather pages